Zurück zum Katalog

STARLINK-5300

AktivKommunikationVLEO
NORAD 55676·PAYLOAD·🇺🇸 United States

Gestartet Feb 17, 2023 von Vandenberg Space Force Base

Loading…

Nächste Überflüge (nächste 24 Stunden)

TLE

AktuellSource: CelesTrak SupGP

Epoche: Sep 14, 2026, 21:17 UTC

1 55676C 23021BA  26257.88729167 -.00009326  00000+0 -78159-3 0  2578
2 55676  70.0030  27.4577 0003081 274.6714 198.4441 14.98332459    16

Verfolge STARLINK-5300 in Echtzeit mit AllMySat

Download on the App Store